Home > Time Zones > World Clock > Weather > Egypt > Cairo > Past weeks

Flag for Egypt Weather past 2 weeks in Cairo, Egypt

Now
81 °F

Clear.


Feels Like: 83 °F
Forecast: 72 / 98 °F
Wind: 5 mph from Northeast

Location: Cairo Airport

Current Time: Sep 2, 2015 at 12:34:22 AM

Latest Report: Sep 1, 2015 at 11:30 PM


Visibility: 10 mi

Pressure: 29.92 "Hg

Humidity: 66%

Dew point: 68 °F

Location of CairoLocation

Historic Weather in Cairo — Graph

°F

Cairo temperature yesterday

Maximum temperature yesterday: 97 °F (at 2:00 PM)
Minimum temperature yesterday: 75 °F (at 4:00 AM)
Average temperature yesterday: 87 °F

Past Weeks' High & Low Weather Summary

 TemperatureHumidityPressure
High99 °F (Aug 20, 2:00 PM)100% (Aug 30, 8:00 AM)29.92 "Hg (Aug 30, 8:00 AM)
Low43 °F (Aug 30, 8:00 AM)20% (Aug 31, 3:00 PM)29.74 "Hg (Aug 22, 3:00 PM)
Average85 °F57%29.84 "Hg
* Reported Aug 17 11:00 PM — Sep 1 11:30 PM, Cairo, Weather by CustomWeather, © 2015

Note: Actual official high and low records may vary slightly from our data, if they occured in-between our weather recording intervals... More about our weather records

Advertising

Cairo weather history for previous 24 hours

 ConditionsComfort  
Time TempWeatherWind HumidityBarometerVisibility
11:30 PM
Tue, Sep 1
82 °FClear.5 mph62%29.92 "Hg10 mi
11:00 PM82 °FClear.5 mph62%29.92 "Hg10 mi
10:30 PM82 °FClear.6 mph58%29.92 "Hg10 mi
10:00 PM82 °FClear.6 mph55%29.92 "Hg10 mi
9:30 PM84 °FClear.9 mph48%29.92 "Hg10 mi
9:00 PM86 °FClear.9 mph43%29.89 "Hg10 mi
8:30 PM90 °FClear.9 mph41%29.86 "Hg10 mi
8:00 PM90 °FClear.9 mph41%29.86 "Hg10 mi
7:30 PM91 °FClear.10 mph32%29.86 "Hg10 mi
7:00 PM91 °FClear.10 mph32%29.86 "Hg10 mi
6:30 PM91 °FPassing clouds.7 mph36%29.86 "HgN/A
6:00 PM93 °FScattered clouds.7 mph32%29.86 "HgN/A
5:30 PM93 °FPassing clouds.7 mph32%29.86 "HgN/A
5:00 PM97 °FPassing clouds.7 mph30%29.86 "HgN/A
4:30 PM95 °FSunny.7 mph26%29.86 "Hg10 mi
4:00 PM95 °FSunny.8 mph25%29.86 "Hg10 mi
3:30 PM95 °FSunny.6 mph26%29.86 "Hg10 mi
3:00 PM95 °FSunny.6 mph26%29.86 "Hg10 mi
2:30 PM95 °FSunny.6 mph26%29.86 "Hg10 mi
2:00 PM97 °FSunny.9 mph30%29.86 "Hg10 mi
1:30 PM93 °FSunny.3 mph32%29.86 "Hg10 mi
1:00 PM93 °FSunny.3 mph34%29.89 "Hg10 mi
12:30 PM93 °FSunny.2 mph32%29.89 "Hg10 mi
12:00 PM91 °FSunny.No wind34%29.89 "Hg10 mi
11:30 AM91 °FSunny.5 mph36%29.89 "Hg10 mi
11:00 AM91 °FSunny.2 mph36%29.89 "Hg10 mi
10:30 AM88 °FSunny.3 mph40%29.92 "Hg10 mi
10:00 AM88 °FSunny.1 mph43%29.92 "Hg10 mi
9:30 AM86 °FSunny.3 mph49%29.92 "Hg10 mi
9:00 AM84 °FSunny.No wind51%29.92 "Hg10 mi
8:30 AM82 °FSunny.No wind55%29.92 "Hg10 mi
8:00 AM82 °FSunny.No wind58%29.89 "Hg10 mi
7:30 AM81 °FSunny.No wind62%29.89 "Hg10 mi
7:00 AM81 °FSunny.No wind58%29.89 "Hg10 mi
5:30 AM75 °FSunny.No wind69%29.89 "Hg10 mi
5:00 AM77 °FClear.No wind65%29.89 "Hg10 mi
4:30 AM75 °FClear.No wind65%29.89 "Hg10 mi
4:00 AM75 °FClear.No wind65%29.89 "Hg10 mi
3:30 AM77 °FClear.No wind65%29.89 "Hg10 mi
3:00 AM77 °FClear.No wind65%29.89 "Hg10 mi
2:30 AM79 °FClear.2 mph61%29.89 "Hg10 mi
2:00 AM79 °FClear.2 mph58%29.89 "Hg10 mi
1:30 AM81 °FClear.No wind54%29.89 "Hg10 mi
1:00 AM81 °FClear.No wind54%29.89 "Hg10 mi
Weather by CustomWeather, © 2015

See weather overviewHow to use our weather pages